BEIDOU-3 M2 (C20)

Last updated on Wed Sep 17 2025 00:03:25 GMT+0000 (Coordinated Universal Time)

1 43002U 17069B 25259.22423998 .00000006 00000+0 00000+0 0 9998 2 43002 56.4496 72.1603 0006017 355.9661 4.0687 1.86230790 53495
UTC large
Height (km)
Speed (km/s)
/
Latitude / Longitude
Inclination (degrees)
Orbital Period (minutes)
Azimuth
Elevation
Range (km)
Doppler Factor

Next 0 passes for location: London (51.5072 / 0.1276)

Sorry there are no passes over London.